www.pogodaiklimat.ru

Погода и климат >> Архив погоды >> Россия >> Саратовская область >> Ртищево


ПОГОДА в Ртищево

  • Прогноз погоды в Ртищево
  • Монитор погоды в Ртищево

АРХИВ ПОГОДЫ в Ртищево

Время (UTC), дата Ветер
(напр.,м/с)
 
Видим.   Явления Облачность Т
(С)
Тd
(С)
f
(%)
Тe
(С)
Тes
(С)
Комфортность P
(гПа)
Po
(гПа)
Тmin
(С)
Tmax
(С)
R
(мм)
R24
(мм)
S
(см)
03 11.09 С 1 10 км ясно +8.9 +8.8 99 +8 +8 1032.4 1006.6 +8.9
06 11.09 штиль 0 10 км 3/0
[Ci fib]
+20.3 +12.1 59 +22 +28 комфорт 1032.0 1007.2
09 11.09 ЮВ 2 10 км 3/1 1000 м
[Cu hum Ci fib]
+24.1 +10.7 43 +25 +33 комфорт 1031.4 1007.0
12 11.09 СВ 2 10 км 4/3 600 м
[Cu hum Ci fib]
+24.7 +9.2 37 +25 +29 комфорт 1030.6 1006.2
15 11.09 В 1 10 км 3/0
[Ci fib]
+18.1 +11.9 67 +19 +19 1030.4 1005.6 +24.9
18 11.09 В 1 4000 м ясно +12.4 +10.0 85 +12 +12 1031.2 1005.8
21 11.09 штиль 0 4000 м ясно +9.9 +8.6 92 +9 +9 1031.6 1006.0
00 12.09 штиль 0 4000 м ясно +8.2 +7.5 95 +7 +7 1031.8 1006.0
03 12.09 ЮВ 1 10 км ясно +7.8 +6.8 93 +7 +7 1032.0 1006.1 +7.7
06 12.09 Ю 2 10 км ясно +19.8 +8.5 48 +21 +26 комфорт 1031.2 1006.4
09 12.09 ЮВ 1 10 км ясно +23.5 +7.7 36 +24 +35 комфорт 1029.9 1005.4
12 12.09 ЮВ 2 10 км ясно +24.7 +7.0 32 +25 +30 комфорт 1028.1 1003.8
15 12.09 штиль 0 10 км ясно +16.7 +11.8 73 +17 +17 1028.1 1003.2 +24.7
18 12.09 В 1 4000 м ясно +10.7 +7.4 80 +10 +10 1028.6 1003.1
21 12.09 штиль 0 4000 м ясно +9.1 +7.2 88 +8 +8 1028.0 1002.3
00 13.09 Ю 1 4000 м ясно +8.2 +7.0 92 +7 +7 1027.6 1001.9
03 13.09 ЮВ 1 10 км ясно +6.6 +6.1 97 +5 +5 1027.5 1001.6 +6.5
06 13.09 ЮЗ 1 10 км ясно +20.0 +8.3 47 +22 +27 комфорт 1026.3 1001.6
09 13.09 Ю 3 10 км ясно +24.3 +6.4 32 +24 +32 комфорт 1024.6 1000.3
12 13.09 ЮЗ 2 10 км ясно +25.3 +6.4 30 +25 +30 комфорт 1022.6 998.4
15 13.09 Ю 1 10 км 1/0
[Ci fib]
+16.9 +10.0 64 +18 +18 1021.7 996.9 +25.7
18 13.09 Ю 1 4000 м ясно +11.4 +7.6 77 +11 +11 1021.8 996.5
21 13.09 Ю 1 4000 м ясно +9.2 +6.6 84 +9 +9 1020.7 995.3
00 14.09 Ю 1 4000 м ясно +7.5 +5.8 89 +7 +7 1019.8 994.2
03 14.09 Ю 1 10 км 6/0
[Ac As]
+7.9 +5.8 87 +7 +7 1018.5 993.0 +7.1
06 14.09 ЮЗ 1 10 км 9/0
[Ac trans]
+18.6 +6.8 46 +20 +22 1016.6 992.1
09 14.09 ЮЗ 5-10
{12}
10 км 10/0
[Ci fib]
+25.3 +5.9 29 +25 +29 комфорт 1014.1 990.2
12 14.09 ЮЗ 5-11
{12}
10 км 10/8 600 м
[Cu med, cong Ci fib]
+24.6 +4.8 28 +24 +25 комфорт 1012.8 988.8
15 14.09 З 2
{11}
10 км 10/10 600 м
[Sc]
+20.4 +9.2 49 +22 +22 комфорт 1012.8 988.5 +25.4
18 14.09 С 2
{10}
4000 м слаб. ливневой дождь 10/10 600 м
[Cb cap]
+13.1 +12.4 96 +12 +12 1015.5 990.5
21 14.09 ЮЗ 1 4000 м слаб. ливневой дождь 10/10 600 м
[Cb cap]
+11.6 +11.5 99 +11 +11 1016.0 990.9
00 15.09 З 1 4000 м {ливн. осадки} 4/0
[Ac trans]
+10.7 +10.5 99 +10 +10 1015.9 990.7
03 15.09 З 1 10 км ясно +7.9 +7.7 99 +7 +7 1016.5 991.1 +7.9 4
06 15.09 З 2 10 км 3/0
[Ci fib]
+12.1 +8.9 81 +11 +15 1016.9 991.8
09 15.09 З 2 10 км 10/3 600 м
[Cu hum Ac trans Ci]
+15.2 +7.2 59 +15 +18 1016.1 991.3
12 15.09 З 2
{12}
10 км 9/9 600 м
[Cb cap]
+13.2 +4.9 57 +13 +13 1015.6 990.6
15 15.09 ЮЗ 1 10 км {гроза} 4/3 600 м
[Cu hum Ci fib]
+11.1 +7.7 80 +11 +11 1015.5 990.3 +16.6
18 15.09 ЮЗ 1 4000 м {гроза} ясно +5.8 +5.7 99 +4 +4 1016.0 990.3
21 15.09 ЮЗ 1 4000 м 6/0
[Ci]
+5.1 +4.9 99 +4 +4 1015.0 989.3
00 16.09 ЮЗ 1 4000 м 10/10 600 м
[Sc]
+7.6 +4.8 82 +7 +7 1012.9 987.5
03 16.09 ЮЗ 2 10 км 10/0
[Ac und]
+9.6 +5.0 73 +8 +8 1010.5 985.3 +4.7
06 16.09 ЮЗ 3 10 км 10/0
[Ac und]
+12.6 +6.2 65 +11 +12 1008.2 983.3
09 16.09 ЮЗ 5-12
{12}
10 км 10/0
[Ac und]
+17.6 +5.6 45 +17 +19 1005.1 980.7
12 16.09 ЮЗ 4
{13}
10 км 10/4 600 м
[Sc Ac trans]
+17.9 +4.8 42 +18 +18 1003.2 979.0
15 16.09 З 3
{11}
10 км 9/5 600 м
[Sc Ac trans]
+15.4 +7.2 58 +15 +15 1003.7 979.2 +18.1
18 16.09 ЮЗ 1 4000 м 6/0
[Ac trans Ci fib]
+10.1 +7.0 81 +10 +10 1004.9 979.9
21 16.09 ЮЗ 1 4000 м 4/0
[Ac trans Ci fib]
+9.0 +6.5 84 +8 +8 1004.7 979.6
00 17.09 ЮЗ 2 4000 м 6/0
[Ci fib]
+6.1 +5.7 97 +3 +3 1004.3 979.0
03 17.09 ЮЗ 2 10 км 8/0
[Ac trans Ci fib]
+7.0 +6.0 93 +5 +5 1004.1 978.8 +6.1
06 17.09 ЮЗ 2 10 км 8/0
[Ac cast Ci sp]
+14.5 +8.5 67 +14 +17 1003.1 978.5
09 17.09 ЮЗ 5-10
{10}
10 км 8/5 600 м
[Cu med, cong Ci]
+19.5 +7.3 45 +20 +22 1001.2 977.1
12 17.09 З 3 10 км 6/4 600 м
[Cu hum Ci]
+18.5 +4.7 40 +19 +21 1000.6 976.4
15 17.09 З 2
{10}
10 км 9/3 600 м
[Cu hum Ci]
+15.4 +4.6 48 +15 +15 1000.5 976.0 +19.5
18 17.09 З 2 4000 м 4/0
[Ac As]
+12.0 +4.1 58 +11 +11 1002.2 977.4
21 17.09 ЮЗ 1 4000 м ясно +5.4 +4.0 91 +4 +4 1003.3 978.0
00 18.09 ЮЗ 1 4000 м ясно +3.7 +3.0 95 +2 +2 1004.2 978.6

 

Местоположение метеостанции Ртищево (Саратовская область, Россия): широта 52.25 долгота 43.78 высота над уровнем моря 213 м.

В архиве по умолчанию представлена погода в Ртищево за последнюю неделю. Архивные данные за месяц целиком и за предыдущие месяцы, начиная с января 2011 года, Вы можете получить, выбрав интересующий диапазон дат из раскрывающегося списка и нажав кнопку "Ввод!".


*Определитесь, кто Вы:
робот инопланетянин человек

Внимание! Время в таблицах - всемирное. Для получения местного времени необходимо прибавить поправку, которая равна 4 ч.

Смотрите также архив погоды в соседних городах и на ближайших метеорологических станциях:

Погода в Росташах (Саратовская область, Россия) (44 км)
Погода в Колышлее (Пензенская область, Россия) (77 км)
Погода в Белинском (Пензенская область, Россия) (84 км)
Погода в Кирсанове (Тамбовская область, Россия) (86 км)
Погода в Балашове (Саратовская область, Россия) (89 км)
Погода в Аткарске (Саратовская область, Россия) (95 км)
Погода в Калининске (Саратовская область, Россия) (99 км)
Погода в Каменке (Пензенская область, Россия) (105 км)
Погода в Обловке (Тамбовская область, Россия) (108 км)
Погода в Кондоле (Пензенская область, Россия) (108 км)

Пояснения к столбцам:

Ветер - указаны скорость ветра в м/с - средняя за 10 мин, порывы в срок и между сроками (в фигурных скобках) и направление, откуда дует ветер: С - северный, СВ - северо-восточный, В - восточный, ЮВ - юго-восточный, Ю - южный, ЮЗ - юго-западный, З - западный, СЗ - северо-западный.
Видимость - горизонтальная дальность видимости в метрах или километрах. При видимости от 1 до 10 км при отсутствии осадков обычно наблюдается дымка, при ухудшении видимости до 1 км и менее - туман. В сухую погоду видимость может ухудшаться дымом, пылью или мглою.
Явления - указаны атмосферные явления, наблюдавшиеся в срок или в последний час перед сроком; фигурными скобками обозначены явления, наблюдавшиеся между сроками (за 1-3 часа до срока); квадратными скобками обозначены град или гололедные отложения с указанием их диаметра в мм.
Облачность - указаны через наклонную черту общая и нижняя облачность в баллах и высота нижней границы облаков в метрах; квадратными скобками обозначены формы облаков: Ci - перистые, Cs - перисто-слоистые, Cc - перисто-кучевые, Ac - высококучевые, As - высокослоистые, Sc - слоисто-кучевые, Ns - слоисто-дождевые, Cu - кучевые, Cb - кучево-дождевые. Подробнее классификацию облаков см. в Атласе облаков (PDF).
T - Температура воздуха - температура, измеренная на высоте 2 м над землей.
Td - Температура точки росы - температура, при понижении до которой содержащийся в воздухе водяной пар достигнет насыщения.
f - Относительная влажность воздуха - влажноcть воздуха, измеренная на высоте 2 м над землей.
Te - Эффективная температура - температура, которую ощущает одетый по сезону человек в тени. Характеристика душности погоды. При расчете учитывается влияние влажности воздуха и скорости ветра на теплоощущения человека.
Tes - Эффективная температура на солнце - температура, которую ощущает человек, с поправкой на солнечный нагрев. Характеристика знойности погоды. Зависит от высоты солнца над горизонтом, облачности и скорости ветра. Ночью, в пасмурную погоду, а также при ветре 12 м/с и более поправка равна нулю.
P - Атмосферное давление - приведенное к уровню моря атмосферное давление.
Po - Атмосферное давление - измеренное на уровне метеостанции атмосферное давление.
Tmin - Минимальная температура - минимум температуры воздуха на высоте 2 м над землей.
Tmax - Максимальная температура - максимум температуры воздуха на высоте 2 м над землей.
R - Количество осадков - Количество выпавших осадков за период времени, мм. При наведении курсора мыши на число - период времени, за который выпало указанное количество осадков.
R24 - Количество осадков - Количество выпавших осадков за 24 часа, мм.
S - Снежный покров - Высота снежного покрова, см. При наведении курсора мыши на число - состояние снежного покрова и степень покрытия местности в баллах.